EW3811 Weather Reports


time (UTC)temp
C
wind
direction
speed
KPH
gust
KPH
rain 1hr
cm
rain 24hr
cm
rain mn
cm
humidity
%
barometer
mb
20260507020042 9 287 0.0 0.0 0.03 0.03 0.03 97 1005.3
20260507014549 9 287 0.0 0.0 0.03 0.03 0.03 97 1005.5
20260507013036 10 235 0.0 0.0 0.00 0.00 0.00 97 1005.5
20260507011538 10 212 0.0 0.0 0.00 0.00 0.00 97 1005.5
20260507010036 10 114 0.0 0.0 0.00 0.03 0.00 97 1005.3
20260507004537 10 359 0.0 1.6 0.00 0.03 0.00 97 1005.2
20260507003028 11 290 0.0 1.6 0.00 0.03 0.00 97 1005.1
20260507001528 11 185 0.0 0.0 0.00 0.03 0.00 97 1004.9
20260507000028 12 239 0.0 3.2 0.00 0.03 0.00 97 1004.7
20260506234527 12 159 0.0 0.0 0.00 0.03 0.00 97 1004.7
20260506233027 12 160 0.0 0.0 0.00 0.03 0.00 97 1004.5
20260506231526 12 160 0.0 0.0 0.00 0.03 0.00 97 1004.6
20260506230025 12 285 0.0 3.2 0.00 0.03 0.00 97 1004.6
20260506224524 12 214 0.0 11.3 0.00 0.03 0.00 97 1004.3
20260506223022 12 243 1.6 8.0 0.00 0.03 0.00 97 1004.4
20260506221520 12 219 0.0 8.0 0.00 0.03 0.00 97 1004.5
20260506220031 12 202 0.0 9.7 0.00 0.08 0.00 97 1004.7
20260506214516 12 207 0.0 6.4 0.00 0.08 0.00 97 1005.0
20260506213014 12 280 1.6 8.0 0.00 0.08 0.00 97 1005.1
20260506211513 12 207 0.0 11.3 0.00 0.08 0.00 97 1005.1
20260506210015 12 240 1.6 6.4 0.00 0.08 0.00 97 1005.3
20260506204511 12 268 0.0 4.8 0.00 0.08 0.00 97 1005.4
20260506203019 12 284 0.0 8.0 0.00 0.08 0.00 97 1005.4
20260506201509 12 229 0.0 11.3 0.00 0.08 0.00 97 1005.4
20260506200008 12 252 1.6 9.7 0.00 0.08 0.00 97 1005.5
20260506194505 12 284 0.0 4.8 0.00 0.08 0.00 97 1005.8
20260506193004 12 239 0.0 8.0 0.00 0.08 0.00 97 1005.9
20260506191503 12 267 0.0 6.4 0.00 0.08 0.00 97 1005.9
20260506190004 12 270 1.6 12.9 0.00 0.08 0.00 96 1005.9
20260506184502 12 238 0.0 1.6 0.00 0.08 0.00 96 1005.9
20260506183118 12 216 0.0 1.6 0.00 0.08 0.00 96 1006.2
20260506181602 12 236 0.0 0.0 0.00 0.08 0.00 96 1006.4
20260506180114 12 115 0.0 0.0 0.00 0.10 0.00 96 1007.0
20260506174555 12 273 0.0 1.6 0.00 0.10 0.00 95 1007.1
20260506173124 12 287 0.0 0.0 0.00 0.10 0.00 94 1006.9
20260506171553 12 240 0.0 0.0 0.00 0.10 0.00 93 1006.9
20260506170051 13 181 0.0 8.0 0.00 0.10 0.00 94 1007.0
20260506164550 12 211 0.0 3.2 0.00 0.10 0.00 94 1007.2
20260506163052 13 237 0.0 8.0 0.00 0.10 0.00 93 1007.6
20260506161553 13 244 0.0 3.2 0.00 0.10 0.00 92 1007.9
20260506160044 13 229 0.0 1.6 0.00 0.10 0.00 91 1008.0
20260506154542 13 252 0.0 3.2 0.00 0.10 0.00 90 1008.3
20260506153040 13 298 0.0 0.0 0.00 0.10 0.00 89 1008.3
20260506151541 13 207 0.0 9.7 0.00 0.10 0.00 87 1008.5
20260506150043 13 276 0.0 4.8 0.00 0.13 0.00 86 1008.6
20260506144555 13 200 0.0 6.4 0.00 0.13 0.00 86 1008.5
20260506143038 13 336 0.0 8.0 0.00 0.13 0.00 85 1008.4
20260506141537 13 160 0.0 1.6 0.00 0.13 0.00 85 1008.3
20260506140037 13 166 0.0 0.0 0.00 0.15 0.00 87 1008.4
20260506134536 13 229 0.0 0.0 0.00 0.15 0.00 87 1008.6
20260506133041 12 252 0.0 0.0 0.00 0.15 0.00 87 1008.9
20260506131535 12 135 0.0 0.0 0.00 0.15 0.00 88 1008.9
20260506130037 12 135 0.0 0.0 0.00 0.15 0.00 90 1008.9
20260506124536 12 135 0.0 6.4 0.00 0.15 0.00 90 1008.9
20260506123033 12 255 0.0 0.0 0.00 0.15 0.00 90 1009.2
20260506121532 12 243 0.0 0.0 0.00 0.15 0.00 90 1009.2
20260506120032 12 243 0.0 0.0 0.00 0.15 0.00 90 1009.4
20260506114531 12 243 0.0 0.0 0.00 0.15 0.00 90 1009.4
20260506113031 12 243 0.0 0.0 0.00 0.15 0.00 90 1009.4
20260506111529 12 243 0.0 0.0 0.00 0.15 0.00 90 1009.2
20260506110030 11 242 0.0 0.0 0.00 0.15 0.00 90 1009.4
20260506104530 11 256 0.0 0.0 0.00 0.15 0.00 90 1009.4
20260506103026 12 322 0.0 0.0 0.00 0.15 0.00 90 1009.3
20260506101525 11 320 0.0 0.0 0.00 0.15 0.00 92 1009.1
20260506100025 11 320 0.0 0.0 0.00 0.15 0.00 91 1008.9
20260506094522 11 311 0.0 0.0 0.00 0.15 0.00 89 1008.9
20260506093025 11 323 0.0 0.0 0.00 0.15 0.00 89 1009.0
20260506091524 11 320 0.0 0.0 0.00 0.15 0.00 89 1009.3
20260506090022 12 313 0.0 0.0 0.00 0.18 0.00 88 1009.3
20260506084531 12 356 0.0 0.0 0.00 0.18 0.00 87 1008.9
20260506083012 12 205 0.0 0.0 0.00 0.18 0.00 87 1008.9
20260506081515 12 222 0.0 0.0 0.00 0.18 0.00 87 1008.9
20260506073009 13 195 0.0 0.0 0.00 0.18 0.00 83 1008.8
20260506071508 13 274 0.0 0.0 0.00 0.18 0.00 83 1008.7
20260506061503 13 44 0.0 0.0 0.00 0.18 0.00 83 1008.4
20260506044554 13 350 0.0 0.0 0.00 0.18 0.00 84 1009.0
20260506043052 13 337 0.0 0.0 0.00 0.18 0.00 83 1008.7
20260506041554 12 333 0.0 0.0 0.00 0.18 0.00 87 1008.8
20260506040046 12 323 0.0 0.0 0.00 0.20 0.18 90 1008.9
20260506034552 13 342 0.0 0.0 0.00 0.20 0.18 86 1008.8
20260506033049 14 272 0.0 0.0 0.00 0.20 0.18 78 1009.1
20260506031545 14 272 0.0 0.0 0.00 0.20 0.18 77 1008.7
20260506030056 14 236 0.0 0.0 0.00 0.20 0.18 76 1008.8
20260506024550 13 293 0.0 0.0 0.00 0.20 0.18 78 1008.5
20260506023042 14 262 0.0 3.2 0.00 0.20 0.18 76 1008.5
20260506021552 14 273 0.0 6.4 0.00 0.20 0.18 76 1008.4